DW8851 Weather Reports


time (UTC)temp
C
wind
direction
speed
KPH
gust
KPH
rain 1hr
cm
rain 24hr
cm
rain mn
cm
humidity
%
barometer
mb
20260507020030 13 360 0.0 4.8 0.00 0.00 0.00 92 1007.5
20260507014526 13 360 0.0 6.4 0.00 0.00 0.00 93 1007.3
20260507013025 13 360 0.0 1.6 0.00 0.00 0.00 93 1007.4
20260507011523 14 360 0.0 6.4 0.00 0.00 0.00 92 1006.9
20260507010025 15 360 1.6 8.0 0.00 0.00 0.00 93 1006.9
20260507004531 15 360 1.6 6.4 0.00 0.00 0.00 93 1006.1
20260507003021 15 360 1.6 14.5 0.00 0.00 0.00 93 1006.1
20260507001521 15 360 4.8 19.3 0.00 0.00 0.00 93 1006.2
20260507000020 15 360 3.2 8.0 0.00 0.00 0.00 93 1006.2
20260506234519 15 360 3.2 12.9 0.00 0.00 0.00 93 1005.9
20260506233019 15 360 3.2 14.5 0.00 0.00 0.00 93 1005.9
20260506231518 15 360 4.8 12.9 0.00 0.00 0.00 93 1005.8
20260506230017 15 360 1.6 12.9 0.00 0.00 0.00 93 1005.7
20260506224516 15 360 1.6 8.0 0.00 0.00 0.00 93 1005.6
20260506223017 15 360 1.6 8.0 0.00 0.00 0.00 93 1005.6
20260506221515 15 360 3.2 16.1 0.00 0.00 0.00 92 1005.6
20260506220029 15 360 3.2 9.7 0.00 0.00 0.00 92 1005.6
20260506214513 15 360 3.2 12.9 0.00 0.00 0.00 92 1005.6
20260506213012 15 360 4.8 17.7 0.00 0.00 0.00 92 1005.7
20260506211511 15 360 4.8 17.7 0.00 0.00 0.00 92 1005.8
20260506210013 15 360 3.2 16.1 0.00 0.00 0.00 91 1005.7
20260506204509 15 360 4.8 9.7 0.00 0.00 0.00 91 1005.9
20260506203015 15 360 3.2 8.0 0.00 0.00 0.00 91 1006.0
20260506201507 15 360 3.2 16.1 0.00 0.00 0.00 90 1005.9
20260506200004 15 360 6.4 17.7 0.00 0.00 0.00 90 1006.1
20260506194503 16 360 3.2 8.0 0.00 0.00 0.00 89 1006.2
20260506193000 16 360 4.8 14.5 0.00 0.00 0.00 89 1006.7
20260506191609 16 360 3.2 14.5 0.00 0.00 0.00 89 1006.8
20260506190059 16 360 6.4 20.9 0.00 0.00 0.00 88 1006.7
20260506184558 16 360 8.0 17.7 0.00 0.00 0.00 88 1006.8
20260506183113 16 360 4.8 14.5 0.00 0.00 0.00 88 1006.7
20260506181601 16 360 3.2 17.7 0.00 0.00 0.00 87 1006.9
20260506180113 16 360 4.8 16.1 0.00 0.00 0.00 86 1006.7
20260506174553 17 360 4.8 16.1 0.00 0.00 0.00 84 1006.9
20260506173119 17 360 8.0 20.9 0.00 0.00 0.00 81 1007.4
20260506171552 18 360 4.8 19.3 0.00 0.00 0.00 78 1007.8
20260506170050 18 360 6.4 22.5 0.00 0.00 0.00 75 1008.0
20260506164550 20 360 6.4 20.9 0.00 0.00 0.00 73 1007.7
20260506163055 20 360 0.0 14.5 0.00 0.00 0.00 70 1007.4
20260506161554 21 360 3.2 17.7 0.00 0.00 0.00 69 1007.4
20260506160045 20 360 3.2 9.7 0.00 0.00 0.00 71 1007.9
20260506154540 20 360 4.8 19.3 0.00 0.00 0.00 71 1008.1
20260506153039 20 360 9.7 19.3 0.00 0.00 0.00 71 1008.2
20260506151536 20 360 3.2 16.1 0.00 0.00 0.00 73 1008.4
20260506150032 19 360 8.0 16.1 0.00 0.00 0.00 74 1008.6
20260506144528 18 360 0.0 16.1 0.00 0.00 0.00 76 1008.7
20260506143030 18 360 4.8 16.1 0.00 0.00 0.00 76 1008.8
20260506141533 18 360 3.2 16.1 0.00 0.00 0.00 77 1009.0
20260506140025 18 360 3.2 8.0 0.00 0.00 0.00 77 1009.0
20260506134522 17 360 3.2 17.7 0.00 0.00 0.00 79 1008.8
20260506133019 17 360 6.4 20.9 0.00 0.00 0.00 80 1008.7
20260506131522 16 360 3.2 16.1 0.00 0.00 0.00 81 1008.9
20260506130018 16 360 4.8 19.3 0.00 0.00 0.00 81 1009.0
20260506124515 16 360 3.2 14.5 0.00 0.00 0.00 82 1009.1
20260506123015 16 360 1.6 17.7 0.00 0.00 0.00 82 1009.2
20260506121513 16 360 4.8 19.3 0.00 0.00 0.00 82 1009.3
20260506120022 16 360 3.2 14.5 0.00 0.00 0.00 82 1009.4
20260506114512 16 360 3.2 12.9 0.00 0.00 0.00 83 1009.3
20260506113012 15 360 3.2 14.5 0.00 0.00 0.00 83 1009.4
20260506111511 15 360 3.2 12.9 0.00 0.00 0.00 85 1009.2
20260506110008 15 360 1.6 12.9 0.00 0.00 0.00 85 1009.7
20260506104505 14 360 1.6 8.0 0.00 0.00 0.00 85 1009.6
20260506103004 14 360 1.6 9.7 0.00 0.00 0.00 85 1009.6
20260506101502 14 360 1.6 14.5 0.00 0.00 0.00 85 1009.4
20260506100105 14 360 1.6 6.4 0.00 0.00 0.00 85 1009.2
20260506094612 14 360 1.6 6.4 0.00 0.00 0.00 84 1009.3
20260506093055 14 360 1.6 8.0 0.00 0.00 0.00 84 1009.3
20260506091554 15 360 3.2 9.7 0.00 0.00 0.00 83 1009.3
20260506090053 15 360 1.6 8.0 0.00 0.00 0.00 83 1009.3
20260506084556 15 360 1.6 8.0 0.00 0.00 0.00 82 1009.3
20260506083057 15 360 3.2 12.9 0.00 0.00 0.00 82 1009.6
20260506081550 15 360 1.6 6.4 0.00 0.00 0.00 82 1009.4
20260506080103 15 360 1.6 4.8 0.00 0.00 0.00 81 1009.4
20260506073055 15 360 0.0 9.7 0.00 0.00 0.00 80 1009.4
20260506071543 16 360 1.6 6.4 0.00 0.00 0.00 79 1009.3
20260506061536 16 360 3.2 9.7 0.00 0.00 0.00 76 1008.9
20260506044535 17 360 3.2 16.1 0.00 0.00 0.00 71 1009.2
20260506043025 17 360 4.8 14.5 0.00 0.00 0.00 70 1009.1
20260506041532 17 360 6.4 12.9 0.00 0.00 0.00 70 1009.3
20260506040021 17 360 4.8 19.3 0.00 0.00 0.00 69 1009.3
20260506034520 17 360 1.6 14.5 0.00 0.00 0.00 69 1009.2
20260506033020 17 360 4.8 12.9 0.00 0.00 0.00 69 1009.4
20260506031519 17 360 1.6 9.7 0.00 0.00 0.00 69 1009.4
20260506030018 17 360 1.6 8.0 0.00 0.00 0.00 68 1009.5
20260506024519 17 360 4.8 14.5 0.00 0.00 0.00 67 1009.3
20260506023020 17 360 1.6 12.9 0.00 0.00 0.00 67 1009.3
20260506021518 18 360 4.8 14.5 0.00 0.00 0.00 66 1009.2